Location: Dappach
(48.9767°N, 9.6998°E)
Time: 05:04:45
(UTC+00:00)

COSMOS 2428 - Pass Details

Date: 21 August 2024
Orbit: 842 x 857 km, 70.9° (Epoch: 16 September)

Event Time Altitude Azimuth Distance (km) Brightness Sun altitude
Exits shadow 01:39:10 11° 285° (WNW) 2,413 4.9 -22.2°
Maximum altitude 01:42:40 18° 324° (NW) 1,988 4.8 -21.8°
Drops below altitude 10° 01:46:29 10° 6° (N) 2,496 6.0 -21.5°
Sets 01:49:49 0° 25° (NNE) 3,438 7.3 -21.1°
